www.pogodaiklimat.ru

Погода и климат >> Архив погоды >> Франция >> Дижон


ПОГОДА в Дижоне

  • Прогноз погоды в Дижоне
  • Монитор погоды в Дижоне

АРХИВ ПОГОДЫ в Дижоне

Время (UTC), дата Ветер
(напр.,м/с)
 
Видим.   Явления Облачность Т
(С)
Тd
(С)
f
(%)
Тe
(С)
Тes
(С)
Комфортность P
(гПа)
Po
(гПа)
Тmin
(С)
Tmax
(С)
R
(мм)
R24
(мм)
S
(см)
01 10.06 З 1 6000 м слаб. дождь 10/3 100 м
[]
+14.1 +13.8 98 +15 +15 1016.5 989.7 0.0
02 10.06 штиль 0 5000 м слаб. дождь 10/10
[]
+13.9 +13.7 99 +13 +13 1016.2 989.4 0.0
03 10.06 ЮЗ 1
{2}
11 км 10/0 2000 м
[]
+13.6 +13.4 99 +14 +14 1016.0 989.1 0.0 0
04 10.06 ЮВ 1 7000 м 10/10 2000 м
[]
+13.3 +13.1 99 +14 +14 1016.0 989.1
05 10.06 штиль 0 6000 м 9/9 1500 м
[]
+13.8 +13.8 100 +13 +13 1015.7 988.9
06 10.06 В 1
{2}
10 км 9/9 50 м
[]
+14.5 +14.3 99 +15 +16 1015.9 989.1 +13.3 +15.6 0.0 0
07 10.06 штиль 0 21 км 9/5 200 м
[]
+15.2 +14.4 95 +15 +17 1014.8 988.1
08 10.06 ЮВ 1 19 км 10/9 200 м
[]
+16.3 +14.7 90 +18 +18 1014.4 987.8
09 10.06 Ю 2
{4}
35 км 10/10 300 м
[]
+17.0 +14.6 86 +17 +17 1014.3 987.8 0
10 10.06 Ю 2 35 км 9/5 300 м
[]
+18.0 +14.9 82 +19 +24 1013.9 987.5
11 10.06 ЮВ 2 15 км слаб. дождь 10/9 300 м
[]
+17.2 +15.7 91 +17 +18 1013.8 987.3 0.0
12 10.06 Ю 5
{7}
19 км 9/9 300 м
[]
+17.3 +14.9 86 +17 +18 1013.5 987.1 0.0 0
13 10.06 Ю 2 19 км 10/10 300 м
[]
+17.1 +15.3 89 +17 +17 1012.9 986.5 0.0
14 10.06 З 3 28 км слаб. дождь 10/10 300 м
[]
+16.0 +12.9 82 +16 +16 1013.8 987.2 0.0
15 10.06 СЗ 5
{10}
35 км 10/10 300 м
[]
+14.9 +10.9 77 +13 +13 1014.2 987.5 0.0 0
16 10.06 СЗ 2 30 км 10/10 1000 м
[]
+14.6 +10.4 76 +14 +14 1013.9 987.2
17 10.06 Ю 1 45 км 10/10 1500 м
[]
+14.6 +11.7 83 +16 +16 1014.1 987.4 0.0
18 10.06 Ю 1
{3}
35 км 10/0 2000 м
[]
+14.3 +11.1 81 +15 +15 1014.3 987.5 +14.3 +18.2 0.0 0
19 10.06 ЮВ 1 40 км 10/10 2000 м
[]
+13.7 +11.7 88 +14 +14 1014.2 987.4
20 10.06 ЮВ 1 30 км 10/6 300 м
[]
+12.9 +11.8 93 +13 +13 1014.6 987.7
21 10.06 Ю 1
{2}
11 км 10/0 2000 м
[]
+12.6 +12.0 96 +12 +12 1014.3 987.4 0
22 10.06 Ю 1 14 км 10/10 2000 м
[]
+12.7 +12.2 97 +13 +13 1014.3 987.4 0.0
23 10.06 ЮВ 1 1600 м дымка 10/5 100 м
[]
+11.8 +11.3 97 +12 +12 1014.2 987.2 0.0
00 11.06 Ю 1
{3}
10 км 10/0
[]
+11.9 +11.7 99 +12 +12 1014.2 987.2 0.0 0
01 11.06 ЮВ 1 6000 м 10/8 100 м
[]
+11.7 +11.5 99 +12 +12 1013.6 986.6
02 11.06 Ю 1 600 м туман ?/? +11.8 +11.8 100 +12 +12 1013.4 986.4
03 11.06 штиль 0
{2}
300 м туман ?/? +11.7 +11.7 100 +11 +11 1013.3 986.3 0
04 11.06 СЗ 1 900 м туман ?/? +11.7 +11.7 100 +12 +12 1012.6 985.6
05 11.06 СЗ 1 3400 м дымка ?/? +11.4 +11.2 99 +12 +12 1012.1 985.1
06 11.06 СЗ 2
{4}
27 км 10/0 2000 м
[]
+11.4 +10.8 96 +10 +12 1012.1 985.1 +11.2 +14.3 0.0 0
07 11.06 штиль 0 5000 м дождь 10/10 100 м
[]
+11.8 +11.2 96 +11 +11 1012.9 985.9 0.0
08 11.06 СЗ 1 17 км 10/10 200 м
[]
+12.2 +11.6 96 +12 +12 1012.7 985.8 0.0
09 11.06 СВ 2
{2}
13 км слаб. дождь 10/10 100 м
[]
+12.8 +11.9 94 +12 +12 1012.6 985.7 0.0 0
10 11.06 С 1 17 км 10/10 200 м
[]
+13.0 +11.6 91 +13 +13 1012.8 985.9 0.0
11 11.06 С 1 22 км слаб. дождь 10/4 600 м
[]
+13.8 +11.5 86 +15 +22 1012.5 985.7 0.2
12 11.06 СВ 2
{4}
35 км 10/10 300 м
[]
+14.3 +11.6 84 +14 +14 1012.2 985.5 0.2 0
13 11.06 В 1 40 км 10/9 480 м
[]
+15.0 +11.4 79 +16 +17 1012.1 985.4
14 11.06 ЮВ 1 45 км 9/6 630 м
[]
+15.3 +11.3 77 +16 +20 1011.9 985.3
15 11.06 В 3
{5}
45 км 9/9 600 м
[]
+15.4 +11.4 77 +15 +16 1011.8 985.2 0
16 11.06 В 2 50 км 8/1 300 м
[]
+15.3 +11.3 77 +15 +19 1011.5 984.9
17 11.06 В 2 45 км 9/1 300 м
[]
+14.7 +11.8 83 +14 +16 1011.5 984.8
18 11.06 ЮВ 3
{5}
45 км 8/0
[]
+14.1 +11.1 82 +13 +14 1011.8 985.1 +11.3 +15.7 0
19 11.06 ЮВ 1 40 км 9/1 300 м
[]
+13.4 +12.1 92 +14 +14 1011.6 984.8
20 11.06 штиль 0 35 км 10/10 2000 м
[]
+13.0 +11.9 93 +12 +12 1011.6 984.8
21 11.06 ЮВ 2
{2}
8000 м слаб. дождь 10/0 2000 м
[]
+12.6 +12.0 96 +12 +12 1011.9 985.0 0.4 0
22 11.06 ЮВ 1 7000 м слаб. дождь 10/9 100 м
[]
+12.5 +12.2 98 +13 +13 1011.8 984.9 0.4
23 11.06 ЮВ 2 8000 м слаб. дождь 10/9 100 м
[]
+12.1 +11.6 97 +11 +11 1011.5 984.6 0.4
00 12.06 штиль 0
{4}
15 км слаб. дождь 10/10 300 м
[]
+12.0 +11.7 98 +11 +11 1010.8 983.9 0.8 0
01 12.06 ЮВ 1 7000 м 10/6 100 м
[]
+11.9 +11.7 99 +12 +12 1010.8 983.9 0.0
02 12.06 Ю 2 4300 м слаб. дождь 10/10 50 м
[]
+12.0 +12.0 100 +11 +11 1010.9 984.0 0.8
03 12.06 Ю 3
{4}
5000 м слаб. дождь 10/10 100 м
[]
+11.9 +11.7 99 +10 +10 1010.9 984.0 1 0
04 12.06 Ю 1 6000 м слаб. дождь 10/10 2000 м
[]
+11.6 +11.4 99 +11 +11 1011.2 984.3 0.0
05 12.06 Ю 2 7000 м слаб. дождь 10/8 100 м
[]
+11.4 +11.2 99 +10 +10 1012.0 985.0 0.0
06 12.06 Ю 3
{5}
12 км 10/10 100 м
[]
+11.6 +11.3 98 +10 +10 1012.3 985.3 +11.4 +14.1 0.0 0
07 12.06 Ю 3 27 км 10/9 200 м
[]
+13.3 +11.5 89 +12 +12 1012.2 985.4
08 12.06 Ю 3 30 км 10/10 300 м
[]
+14.4 +11.0 80 +14 +14 1012.3 985.6
09 12.06 ЮЗ 4
{8}
50 км 8/8 600 м
[]
+15.3 +10.3 72 +14 +16 1012.1 985.5 0
10 12.06 Ю 2 40 км 9/9 600 м
[]
+16.6 +9.5 63 +17 +18 1012.1 985.6
11 12.06 Ю 3 50 км 9/9 1000 м
[]
+17.4 +9.0 58 +18 +19 1011.9 985.4
12 12.06 Ю 5
{9}
19 км н/о +18.6 +10.2 58 +19 +19 1011.5 985.2 0
13 12.06 Ю 3 40 км н/о +19.3 +8.9 51 +20 +20 1011.1 984.8
14 12.06 Ю 3 40 км н/о +19.7 +9.3 51 +21 +21 комфорт 1011.0 984.8
15 12.06 Ю 5
{9}
60 км н/о +20.2 +9.1 49 +21 +21 комфорт 1011.1 984.9 0
16 12.06 Ю 2 60 км н/о +19.4 +8.7 50 +21 +21 комфорт 1011.1 984.8
17 12.06 Ю 2 55 км н/о +18.4 +8.9 54 +19 +19 1011.2 984.9
18 12.06 ЮЗ 5
{9}
60 км н/о +19.2 +6.6 44 +20 +20 1011.7 985.4 +11.6 +20.3 0
19 12.06 ЮЗ 2 45 км н/о +17.2 +7.0 51 +18 +18 1012.1 985.6
20 12.06 ЮЗ 1 45 км н/о +14.7 +7.3 61 +15 +15 1013.0 986.3
21 12.06 ЮЗ 2
{4}
45 км н/о +13.5 +7.3 66 +13 +13 1014.2 987.3 0
22 12.06 ЮЗ 2 45 км 10/10
[]
+12.3 +8.0 75 +12 +12 1014.7 987.7
23 12.06 ЮЗ 1 45 км 10/10
[]
+11.9 +8.2 78 +13 +13 1014.8 987.8
00 13.06 Ю 3
{3}
40 км н/о +10.4 +8.2 86 +9 +9 1015.4 988.2 0
01 13.06 ЮЗ 1 45 км н/о +9.2 +7.3 88 +10 +10 1015.7 988.4
02 13.06 штиль 0 45 км н/о +7.7 +6.5 92 +7 +7 1016.0 988.5
03 13.06 СЗ 1
{2}
45 км н/о +7.0 +6.3 95 +6 +6 1016.1 988.5 0
04 13.06 С 1 35 км н/о +6.5 +6.1 97 +6 +6 1016.0 988.4
05 13.06 С 1 30 км н/о +9.5 +7.9 90 +10 +10 1016.1 988.8
06 13.06 С 1
{2}
35 км н/о +12.4 +9.4 82 +12 +12 1015.8 988.8 +5.8 +19.0 0
07 13.06 ЮВ 1 40 км н/о +14.8 +10.0 73 +15 +15 1015.8 989.0
08 13.06 ЮВ 2 19 км н/о +16.7 +10.1 65 +17 +17 1015.4 988.8
09 13.06 Ю 4
{6}
19 км н/о +18.2 +9.8 58 +18 +18 1015.3 988.8 0
10 13.06 Ю 3 55 км н/о +20.0 +9.5 51 +22 +22 комфорт 1014.7 988.4
11 13.06 Ю 3 55 км н/о +21.3 +8.2 43 +22 +22 комфорт 1014.4 988.2
12 13.06 Ю 4
{8}
18 км н/о +22.6 +7.6 38 +24 +24 комфорт 1013.6 987.6 0
13 13.06 Ю 3 55 км н/о +23.3 +6.1 33 +24 +24 комфорт 1013.3 987.3
14 13.06 ЮВ 3 55 км н/о +24.3 +6.1 31 +24 +24 комфорт 1012.6 986.7
15 13.06 ЮВ 4
{8}
60 км н/о +24.6 +7.3 33 +25 +25 комфорт 1012.2 986.4 0
16 13.06 Ю 2 19 км 10/10
[]
+23.1 +7.2 36 +24 +24 комфорт 1012.3 986.3
17 13.06 ЮВ 2 55 км н/о +24.3 +6.5 32 +24 +24 комфорт 1011.4 985.5
18 13.06 ЮВ 3
{5}
50 км н/о +23.1 +8.0 38 +24 +24 комфорт 1011.4 985.5 +12.5 +24.8 0
19 13.06 В 1 60 км н/о +20.7 +10.5 52 +24 +24 комфорт 1011.7 985.6
20 13.06 В 1 7000 м н/о +18.0 +9.6 58 +19 +19 1012.2 985.8
21 13.06 Ю 1
{2}
55 км н/о +15.9 +10.4 70 +17 +17 1012.8 986.2 0
22 13.06 СЗ 1 60 км н/о +14.3 +10.3 77 +15 +15 1013.2 986.4
23 13.06 С 1 60 км н/о +13.4 +9.8 79 +14 +14 1013.4 986.6
00 14.06 С 1
{2}
55 км н/о +12.3 +9.7 84 +12 +12 1013.4 986.4 0
01 14.06 СВ 1 50 км 10/10
[]
+12.7 +9.7 82 +14 +14 1013.1 986.2
02 14.06 СЗ 1 40 км 10/10
[]
+11.9 +9.6 86 +13 +13 1013.3 986.3
03 14.06 С 2
{2}
50 км 10/0
[]
+12.2 +10.3 88 +12 +12 1013.5 986.5 0
04 14.06 штиль 0 50 км 9/9
[]
+12.7 +10.4 86 +12 +12 1013.9 987.0
05 14.06 С 1 14 км слаб. дождь 10/10
[]
+13.4 +11.5 88 +14 +14 1014.2 987.3 0.0
06 14.06 СВ 1
{4}
50 км 10/0
[]
+15.2 +13.0 87 +16 +17 1014.7 988.0 +11.6 +23.0 0.2 0
07 14.06 С 1 40 км 10/10
[]
+15.9 +11.7 76 +17 +17 1015.9 989.2
08 14.06 В 1 30 км 8/8
[]
+17.2 +13.7 80 +18 +20 1016.2 989.7
09 14.06 ЮВ 2
{4}
55 км н/о +17.4 +12.3 72 +18 +18 1016.9 990.3 0
10 14.06 ЮВ 2 18 км н/о +18.2 +12.2 68 +19 +19 1015.8 989.3
11 14.06 Ю 2 19 км 9/9
[]
+17.6 +12.5 72 +18 +20 1015.5 989.0
12 14.06 Ю 1
{6}
50 км 9/9 1000 м
[]
+17.0 +13.7 81 +18 +20 1015.0 988.5 0.0 0
13 14.06 ЮВ 1 11 км слаб. дождь 10/3 600 м
[]
+16.1 +14.8 92 +17 +25 1014.5 987.9 1
14 14.06 СВ 1 26 км слаб. дождь 9/9 1000 м
[]
+16.0 +14.9 93 +17 +18 1012.7 986.2 0.4
15 14.06 В 3
{5}
19 км 10/10 100 м
[]
+16.9 +15.8 93 +17 +17 1012.9 986.4 1 0
16 14.06 С 1 19 км 8/1 200 м
[]
+17.6 +15.0 85 +19 +24 1012.0 985.6
17 14.06 С 2 45 км н/о +17.7 +15.1 85 +18 +18 1011.3 984.9
18 14.06 СЗ 4
{6}
5000 м слаб. дождь 10/10 1000 м
[]
+16.8 +15.7 93 +16 +16 1012.3 985.8 +15.1 +18.2 2 0
19 14.06 СЗ 2 19 км н/о +16.5 +15.4 93 +17 +17 1011.3 984.8 0.0
20 14.06 СЗ 2 30 км 9/9
[]
+16.3 +15.0 92 +17 +17 1011.3 984.8
21 14.06 СЗ 4
{6}
45 км 9/0
[]
+16.5 +14.5 88 +16 +16 1011.2 984.7 0.0 0
22 14.06 СЗ 2 35 км 10/10 1500 м
[]
+16.4 +14.4 88 +16 +16 1011.1 984.6
23 14.06 ЮЗ 2 4900 м дождь 10/8 600 м
[]
+15.2 +14.7 97 +15 +15 1013.6 987.0 8
00 15.06 Ю 2
{4}
3900 м сильн. дождь 10/10 1500 м
[]
+14.8 +14.3 97 +15 +15 1013.8 987.1 11 0
01 15.06 Ю 1 8000 м 10/4 50 м
[]
+14.4 +14.2 99 +15 +15 1013.9 987.2 0.8
02 15.06 Ю 2 15 км 10/10 100 м
[]
+14.5 +14.2 98 +14 +14 1014.6 987.9
03 15.06 Ю 3
{5}
11 км 9/9 100 м
[]
+14.0 +13.7 98 +13 +13 1015.2 988.4 0.8 0
04 15.06 Ю 2 8000 м 8/8 100 м
[]
+13.7 +13.5 99 +13 +13 1015.9 989.0
05 15.06 ЮЗ 2 11 км 10/10 600 м
[]
+14.1 +13.8 98 +14 +14 1015.8 989.0
06 15.06 Ю 3
{5}
16 км 10/10 600 м
[]
+14.8 +14.3 97 +14 +14 1016.3 989.5 +13.6 +16.8 12 0
07 15.06 Ю 1 35 км 10/10 200 м
[]
+15.6 +14.6 94 +16 +16 1017.0 990.3
08 15.06 Ю 2 8000 м 10/10 200 м
[]
+16.3 +14.7 90 +17 +17 1017.7 991.0
09 15.06 Ю 4
{5}
7000 м 10/10 300 м
[]
+17.4 +14.9 85 +17 +17 1017.8 991.2 0
10 15.06 Ю 2 7000 м 10/10 300 м
[]
+17.5 +14.8 84 +18 +18 1017.8 991.3
11 15.06 Ю 2 7000 м 10/10 300 м
[]
+19.4 +14.2 72 +22 +22 комфорт 1017.7 991.3
12 15.06 Ю 1
{4}
15 км 9/9 600 м
[]
+20.9 +14.3 66 +25 +27 комфорт 1017.1 990.9 0
13 15.06 ЮЗ 1 23 км 10/10 1500 м
[]
+21.2 +13.4 61 +24 +24 комфорт 1016.9 990.7
14 15.06 ЮВ 1 27 км 10/1 1000 м
[]
+20.2 +14.6 70 +24 +31 комфорт 1016.9 990.6
15 15.06 СЗ 4
{12}
8000 м слаб. дождь 10/10 600 м
[]
+15.8 +14.3 91 +15 +15 1018.0 991.3 3 0
16 15.06 С 1 8000 м слаб. дождь 10/8 600 м
[]
+16.6 +16.0 96 +18 +19 1018.1 991.5 3
17 15.06 ЮВ 1 12 км 10/10
[]
+16.4 +15.8 96 +17 +17 1018.6 991.9 0.0
18 15.06 Ю 2
{3}
14 км 10/0 2000 м
[]
+16.0 +15.4 96 +16 +17 1019.0 992.3 +14.8 +21.7 3 0
19 15.06 Ю 1 13 км 10/1 100 м
[]
+15.8 +15.3 97 +16 +16 1019.3 992.6
20 15.06 Ю 1 3700 м дымка 10/10 2000 м
[]
+15.4 +15.1 98 +16 +16 1019.8 993.0
21 15.06 Ю 2
{3}
8000 м 10/10 1500 м
[]
+15.2 +14.9 98 +15 +15 1020.5 993.7 0
22 15.06 Ю 1 10 км 10/10 1500 м
[]
+14.9 +14.6 98 +15 +15 1020.8 993.9
23 15.06 ЮЗ 1 11 км 10/10 2000 м
[]
+14.5 +14.0 97 +15 +15 1021.0 994.1
00 16.06 штиль 0
{3}
9000 м 9/0
[]
+13.4 +13.1 98 +13 +13 1021.5 994.5 0
01 16.06 СЗ 1 22 км 9/9
[]
+13.6 +12.3 92 +14 +14 1021.5 994.5
02 16.06 СЗ 1 18 км 9/9
[]
+12.1 +11.2 94 +12 +12 1021.8 994.6
03 16.06 СЗ 1
{2}
15 км 10/0
[]
+11.8 +11.2 96 +12 +12 1021.9 994.7 0
04 16.06 штиль 0 11 км н/о +10.8 +10.2 96 +10 +10 1022.3 995.0
05 16.06 В 1 4000 м дымка н/о +12.0 +11.5 97 +12 +12 1022.6 995.4
06 16.06 СЗ 2
{3}
13 км н/о +15.8 +11.6 76 +16 +16 1022.8 995.9 +10.5 +16.0 0
07 16.06 С 1 18 км н/о +16.6 +11.7 73 +18 +18 1023.0 996.2
08 16.06 З 1 30 км н/о +18.3 +12.5 69 +20 +20 1022.7 996.1
09 16.06 В 1
{4}
19 км н/о +19.5 +13.0 66 +22 +22 комфорт 1022.5 996.0 0
10 16.06 В 1 35 км 10/10 600 м
[]
+20.1 +12.3 61 +23 +23 комфорт 1022.4 995.9
11 16.06 ЮВ 1 29 км 9/9 1000 м
[]
+19.9 +11.6 59 +23 +25 комфорт 1022.3 995.8
12 16.06 В 2
{4}
55 км н/о +21.5 +11.2 52 +23 +23 комфорт 1021.6 995.3 0
13 16.06 Ю 1 45 км н/о +22.8 +12.4 52 +26 +26 жарко 1021.2 995.0
14 16.06 В 2 25 км н/о +22.7 +11.1 48 +25 +25 комфорт 1021.1 994.9
15 16.06 В 3
{6}
23 км н/о +22.5 +12.4 53 +25 +25 комфорт 1020.7 994.5 0
16 16.06 СВ 2 45 км н/о +23.1 +11.2 47 +25 +25 комфорт 1020.2 994.1
17 16.06 СВ 2 23 км н/о +23.0 +11.7 49 +25 +25 комфорт 1020.1 994.0
18 16.06 В 3
{6}
26 км н/о +21.8 +11.8 53 +24 +24 комфорт 1020.1 993.8 +15.5 +23.3 0
19 16.06 СВ 1 45 км н/о +20.2 +11.9 59 +23 +23 комфорт 1020.0 993.6
20 16.06 С 1 40 км н/о +17.5 +12.2 71 +19 +19 1020.4 993.8
21 16.06 С 2
{3}
35 км н/о +16.3 +12.1 76 +16 +16 1020.8 994.0 0
22 16.06 СЗ 1 35 км н/о +14.3 +12.0 86 +15 +15 1020.7 993.8
23 16.06 С 1 35 км н/о +13.4 +11.1 86 +14 +14 1020.6 993.6
00 17.06 С 3
{4}
35 км н/о +14.0 +10.8 81 +13 +13 1020.3 993.3 0

 

Местоположение метеостанции Дижон (Франция): широта 47.27 долгота 5.08 высота над уровнем моря 227 м.

В архиве по умолчанию представлена погода в Дижоне за последнюю неделю. Архивные данные за месяц целиком и за предыдущие месяцы, начиная с января 2011 года, Вы можете получить, выбрав интересующий диапазон дат из раскрывающегося списка и нажав кнопку "Ввод!".


*Определитесь, кто Вы:
робот инопланетянин человек

Внимание! Время в таблицах - всемирное. Для получения местного времени необходимо прибавить поправку, которая равна 1 ч.

Смотрите также архив погоды в соседних городах и на ближайших метеорологических станциях:

Погода в Доле (Франция) (37 км)
Погода в Лангре (Франция) (67 км)
Погода в Безансоне (Франция) (68 км)
Погода в Маконе (Франция) (110 км)
Погода в Люксей-ле-Бене (Франция) (114 км)
Погода в Шарбоньере (Швейцария) (117 км)
Погода в Ла Бревине (Швейцария) (121 км)
Погода на Ла Доли (Швейцария) (121 км)
Погода на Ла-Фрета (Швейцария) (124 км)
Погода в Сен-Яне (Франция) (124 км)

Пояснения к столбцам:

Ветер - указаны скорость ветра в м/с - средняя за 10 мин, порывы в срок и между сроками (в фигурных скобках) и направление, откуда дует ветер: С - северный, СВ - северо-восточный, В - восточный, ЮВ - юго-восточный, Ю - южный, ЮЗ - юго-западный, З - западный, СЗ - северо-западный.
Видимость - горизонтальная дальность видимости в метрах или километрах. При видимости от 1 до 10 км при отсутствии осадков обычно наблюдается дымка, при ухудшении видимости до 1 км и менее - туман. В сухую погоду видимость может ухудшаться дымом, пылью или мглою.
Явления - указаны атмосферные явления, наблюдавшиеся в срок или в последний час перед сроком; фигурными скобками обозначены явления, наблюдавшиеся между сроками (за 1-3 часа до срока); квадратными скобками обозначены град или гололедные отложения с указанием их диаметра в мм.
Облачность - указаны через наклонную черту общая и нижняя облачность в баллах и высота нижней границы облаков в метрах; квадратными скобками обозначены формы облаков: Ci - перистые, Cs - перисто-слоистые, Cc - перисто-кучевые, Ac - высококучевые, As - высокослоистые, Sc - слоисто-кучевые, Ns - слоисто-дождевые, Cu - кучевые, Cb - кучево-дождевые. Подробнее классификацию облаков см. в Атласе облаков (PDF).
T - Температура воздуха - температура, измеренная на высоте 2 м над землей.
Td - Температура точки росы - температура, при понижении до которой содержащийся в воздухе водяной пар достигнет насыщения.
f - Относительная влажность воздуха - влажноcть воздуха, измеренная на высоте 2 м над землей.
Te - Эффективная температура - температура, которую ощущает одетый по сезону человек в тени. Характеристика душности погоды. При расчете учитывается влияние влажности воздуха и скорости ветра на теплоощущения человека.
Tes - Эффективная температура на солнце - температура, которую ощущает человек, с поправкой на солнечный нагрев. Характеристика знойности погоды. Зависит от высоты солнца над горизонтом, облачности и скорости ветра. Ночью, в пасмурную погоду, а также при ветре 12 м/с и более поправка равна нулю.
P - Атмосферное давление - приведенное к уровню моря атмосферное давление.
Po - Атмосферное давление - измеренное на уровне метеостанции атмосферное давление.
Tmin - Минимальная температура - минимум температуры воздуха на высоте 2 м над землей.
Tmax - Максимальная температура - максимум температуры воздуха на высоте 2 м над землей.
R - Количество осадков - Количество выпавших осадков за период времени, мм. При наведении курсора мыши на число - период времени, за который выпало указанное количество осадков.
R24 - Количество осадков - Количество выпавших осадков за 24 часа, мм.
S - Снежный покров - Высота снежного покрова, см. При наведении курсора мыши на число - состояние снежного покрова и степень покрытия местности в баллах.